Погода в Слуцке

Погода в Слуцке : погода сейчас, прогноз погоды и архив. Всё, что Вы хотите узнать о погоде в Слуцке!

Хотите узнать прогноз погоды в Слуцке? Тогда Вам сюда: Погода в Слуцке

Поиск расширенной информации на нашем сайте:

Другие новости

Новости СМИ2

Главная страница сайта

Новости сайта

03.07.2017

Напоминаем, что на нашем специализированном сайте Метеоцентр.Азия вы можете получить высокодетализированные автоматические прогнозы погоды по пунктам России, СНГ и мира в авиационном формате (включающие направление и скорость ветра, видимость, явления погоды, количество и форму облачности, нижнюю и верхнюю границу облачности).


Погода в Слуцке - сегодня

Время (UTC), дата Ветер
(°,м/с) 
Видим.   Явления Облачность Т
(°С)
Тd
(°С)
f(%) Тe
(°С)
Pmin
(гПа)
dP
(гПа)
Po
(мм)
O2
(г/м3)
Тmin Tmax R s Состояние
почвы
00 22.11.17 280 (З) 8000 м  дымка  9/9 1050 м 
[Sc]
-0.6 -0.9 98 -1  1013.1  0.3  745  301           
03 22.11.17 290 (З) 13000 м    9/9 1470 м 
[Sc]
-0.1 -1 94 -1  1013.8  0.7  745  300           
06 22.11.17 290 (З) 9000 м  дымка  9/0 средняя 
[Ac und]
-0.4 -1 96 -1  1014.5  0.7  746  301  -1         
09 22.11.17 360 (С) 13000 м    8/8 600 м 
[Sc]
+0.8 -1.5 85 1015.8  1.5  747  300           
12 22.11.17 тихо ()   10 км    9/9 800 м 
[Sc]
+1 -1.6 83 +1  1016.1  0.3  747  300           
15 22.11.17 300 (СЗ) 11000 м    9/9 800 м 
[Sc]
+0.7 -0.7 90 +1  1017.4  1.3  748  301           
18 22.11.17 060 (СВ) 13000 м    9/9 900 м 
[Sc]
+0.4 -2.3 82 +1  1018.8  1.1  749  302    +3.5       
21 22.11.17 тихо ()   12000 м    ясно 
-1 -3.8 81 -1  1019.7  0.9  749  303           
00 23.11.17 190 (Ю) 10 км    ясно 
-2.4 -4.7 84 -2  1020.1  0.3  750  305           
03 23.11.17 160 (Ю) 8000 м  дымка  ясно 
-2.6 -3.6 93 -2  1020.8  0.7  750  306           
06 23.11.17 170 (Ю) 7000 м  дымка  6/0 верхняя 
[Ci sp]
-3.2 -4.2 93 -3  1021.3  0.5  751  306  -3.5         
09 23.11.17 180 (Ю) 11000 м    8/0 верхняя 
[Ci sp]
+0.4 -3.2 77 1021.4  0.2  751  302           
12 23.11.17 180 (Ю) 12000 м    8/0 средняя 
[Ac cast]
+2.6 -2.6 69 +1  1020.4  -0.7  750  300           
15 23.11.17 170 (Ю) 12000 м    9/0 средняя, верхняя 
[Ac trans|Ci fib]
+1.4 -2.7 74 +1  1020.7  0.2  750  301           
18 23.11.17 150 (ЮВ) 10 км    ясно 
+0 -2.4 84 -1  1021.2  0.3  751  303    +3.1       
21 23.11.17 150 (ЮВ) 10 км    6/0 средняя 
[Ac trans]
-0.2 -2.9 82 1020.8  -0.4  750  303           
00 24.11.17 160 (Ю) 11000 м    ясно 
-1 -3.2 85 -2  1019.9  -0.9  750  303           
03 24.11.17 180 (Ю) 12000 м    10/10 240 м 
[St]
+0 -2.7 82 -2  1019.5  -0.4  749  302           
06 24.11.17 170 (Ю) 8000 м  дымка  9/0 средняя 
[Ac und]
-1 -2.5 90 -2  1019.3  -0.2  749  303  -1         
09 24.11.17 180 (Ю) 7000 м  дымка  9/0 средняя 
[Ac und]
+0.5 -2.5 80 -1  1019.2  749  302           
12 24.11.17 210 (ЮЗ) 7000 м  дымка  10/10 270 м 
[St]
+0.8 -1.2 86 1019.5  0.4  749  301           
15 24.11.17 220 (ЮЗ) 7000 м  дымка  10/10 400 м 
[St]
+1.5 -0.7 85 +1  1019.2  -0.3  749  300           
18 24.11.17 180 (Ю) 8000 м  дымка  9/9 870 м 
[Sc]
+2 -0.8 82 +1  1018.8  -0.4  749  300    +2.1       
21 24.11.17 180 (Ю) 6000 м  дымка  10/10 450 м 
[St]
+1.8 +0.2 89 +1  1018.3  -0.5  749  300           
00 25.11.17 180 (Ю) 5000 м  дымка  10/10 270 м 
[St]
+1.8 +0.7 92 +1  1017.8  -0.5  748  299           
Время (UTC), дата Ветер
(°,м/с) 
Видим.   Явления Облачность Т
(°С)
Тd
(°С)
f(%) Тe
(°С)
Pmin
(гПа)
dP
(гПа)
Po
(мм)
O2
(г/м3)
Тmin Tmax R s Состояние
почвы

Для получения пояснительной информации подведите курсор к названию столбца.

ПОГОДА в Слуцке - архив

Всё, что Вы хотите узнать о погоде в Слуцке - удобно и подробно!

Выберите нужную дату (начиная с 1 января 2015* года) и нажмите кнопку "Найти".
Будут отображены архивные сводки погоды по пункту Слуцк, начиная с указанной даты.


Отображать данные в формате CSV (для использования в таблицах Excel)


Внимание! Наш архив погоды предназначен исключительно для личного некоммерческого использования в познавательных целях. Если Вам необходимы официальные справки о состоянии погоды (для производственных, юридических, коммерческих и т.п. целей), обращайтесь в органы Росгидромета.

*Примечание: данная дата относится к архиву по метеостанциям СССР (Россия, СНГ, Балтия).
Архив по метеостанциям Зарубежной Европы и Азии (кроме Китая) хранится 10 дней, по другим регионам земного шара (Китай, Африка, Америка, Австралия, Океания) - 1 день.

Слуцк - район местоположения метеостанции


Название, широта, долгота, высота метеостанции:
Слуцк 53°ш. 27.6°д. 162 м над ур. моря [Беларусь]

Дополнительная информация

В oтличие oт бoльшинства пoгoдных сайтoв мы публикуем пoдрoбную метеoинфoрмацию в детальнoм прoфессиoнальнoм фoрмате.

Характеристики температуры и влажнoсти вoздуха измеряются на высoте 2 м в тени вдали oт зданий и деревьев.
Скoрoсть ветра измеряется на высoте 10 м (на урoвне рoста челoвека скoрoсть ветра ниже в 1.5-2 раза). Если метеoстанция нахoдится в гoрoде или в лесу, тo скoрoсть ветра занижена на 2-4 м/с пo сравнению с oткрытым местoм. Скoрoсть ветра над акватoриями крупных рек и oзёр, а также на вершинах хoлмoв на 2-5 м/с выше, чем в oбычных услoвиях.
Атмoсфернoе давление в разных тoчках местнoсти мoжет значительнo oтличаться oт давления на метеoстанции, в зависимoсти oт услoвий рельефа (при пoдъёме на 10 м давление пoнижается примернo на 1 мм рт.ст.).